GFSCGP_700_rhum_114.txt.gz
RH
29 19 10 12 16 18 21 20 20 20 24 40 34 32 32 34 36 39 42 34 40 40 30 30 31 27 28 28 27 22 23 23 24 25 30 30 49 64 35 16 20 60 65 73
22 22 7 14 14 16 24 21 20 19 20 30 30 23 24 26 30 34 36 36 33 31 31 31 30 27 28 28 27 23 24 24 24 26 28 32 47 59 36 17 17 48 67 77
29 3 18 21 27 22 20 19 18 22 22 23 26 24 23 22 23 24 22 20 22 25 25 25 29 29 26 28 27 24 24 25 27 29 29 36 45 58 34 17 30 53 67 74
36 22 20 19 29 24 22 19 24 27 26 23 22 19 16 23 23 22 23 28 21 18 19 22 24 26 27 28 28 26 24 26 29 30 30 37 48 57 30 18 43 55 67 76
36 33 31 27 17 27 24 23 28 33 30 28 24 24 17 18 18 26 27 41 20 23 26 28 25 24 25 27 30 27 26 27 27 28 31 42 52 60 25 20 51 55 64 73
45 45 40 35 29 23 30 35 32 30 26 28 23 24 16 16 24 24 43 28 32 34 44 39 43 25 24 28 31 28 27 26 26 28 34 42 58 50 20 32 57 61 67 77
59 34 33 38 36 28 29 32 22 26 27 23 17 22 18 20 34 44 55 33 42 42 32 34 42 37 31 27 29 30 28 27 28 29 36 47 64 31 17 43 51 58 65 68
86 49 35 33 35 24 27 28 21 22 21 19 24 26 22 24 31 44 34 41 50 38 45 40 38 43 43 39 29 31 31 32 30 31 38 58 55 22 20 42 52 62 61 74
97 79 43 39 33 26 23 27 21 14 16 22 18 27 23 31 28 38 31 47 46 54 42 31 30 31 38 45 37 33 32 33 32 35 48 63 30 19 27 27 30 29 53 92
94 93 58 63 31 30 22 25 22 17 24 22 13 18 23 37 50 68 37 55 48 53 36 39 43 38 28 41 45 37 34 33 35 39 59 57 22 18 23 21 21 20 62 89
95 96 64 60 33 23 33 38 28 18 21 18 20 19 27 48 63 78 70 50 61 43 47 50 32 30 29 43 47 42 37 34 35 44 57 36 22 19 23 22 22 22 61 96
97 95 92 68 83 52 26 34 32 28 24 22 20 20 32 45 69 89 59 70 58 56 45 36 43 34 43 44 52 46 46 39 40 59 55 24 21 21 25 25 23 27 63 84
94 95 70 58 72 77 58 30 37 36 26 25 30 22 42 49 74 73 73 67 62 52 48 45 44 50 50 54 57 60 54 50 55 63 44 21 22 24 28 27 27 30 52 67
85 91 97 95 97 92 97 67 69 32 34 30 24 24 52 75 65 74 72 65 61 60 56 51 59 80 85 84 99 79 97 94 75 62 30 21 24 29 32 29 29 30 50 66
98 92 98 93 94 71 92 98 86 64 41 35 27 25 38 63 77 79 72 66 66 62 66 65 74 81 91 100 100 100 99 98 86 55 31 22 26 29 32 32 34 34 36 53
71 91 89 75 88 74 65 95 85 86 74 48 42 30 33 63 94 87 71 72 72 70 62 63 61 64 60 97 100 100 100 99 86 75 32 27 25 29 32 32 34 37 39 38
98 91 77 62 67 85 70 91 79 75 80 80 65 53 55 67 70 86 96 81 76 72 66 57 66 72 66 83 99 100 100 100 97 86 41 37 33 28 30 32 33 34 37 41
90 98 80 70 59 80 74 93 83 80 80 90 81 92 84 95 97 98 86 72 74 76 78 60 64 70 79 72 92 99 100 98 100 86 73 61 54 44 32 29 30 33 38 39
78 96 76 68 60 45 92 82 96 98 86 76 94 83 90 94 70 74 80 80 79 77 76 70 66 70 63 71 67 80 94 99 99 100 96 99 95 75 64 67 60 52 41 34
88 94 92 65 60 55 79 59 85 84 98 97 82 80 97 98 99 89 86 86 79 78 74 77 77 78 61 55 56 52 74 84 95 97 100 98 93 89 87 78 74 73 73 73
89 98 89 72 64 51 59 34 60 94 99 97 98 92 100 96 100 98 92 76 58 44 38 38 38 37 36 48 58 56 53 77 56 67 84 100 90 77 80 80 74 71 64 72
100 96 90 82 77 63 46 58 76 72 95 98 97 96 92 77 63 52 44 40 36 35 39 40 40 42 43 49 54 57 58 50 50 54 57 81 95 74 66 71 71 70 65 69
97 97 96 98 74 93 88 61 54 77 88 99 96 92 83 72 57 45 38 35 33 35 34 34 34 40 54 55 58 56 55 50 47 44 48 45 48 58 59 60 67 70 76 87
96 94 96 97 98 93 65 58 84 85 100 98 99 91 87 80 68 63 58 54 38 38 33 31 30 29 41 44 47 50 54 51 47 40 41 40 34 32 27 30 37 55 72 76
96 96 93 97 98 96 98 78 58 65 96 98 98 93 94 84 71 51 45 44 41 38 33 30 28 27 27 24 37 42 47 49 46 42 37 35 34 32 29 30 33 35 41 55
94 96 96 96 96 96 93 100 77 69 100 99 98 98 98 88 65 46 44 42 38 36 33 30 28 26 24 22 23 43 51 48 44 40 38 35 34 31 32 37 35 37 40 46

GFSCGP_700_rhum_117.txt.gz
RH
30 22 18 15 13 14 15 14 16 21 18 20 21 22 23 28 28 30 33 34 35 37 37 37 37 37 38 39 22 24 25 26 26 23 22 26 25 30 33 49 53 24 15 36
28 18 14 13 17 12 10 12 16 12 14 14 16 21 29 27 24 25 28 30 34 36 37 37 38 39 40 29 23 26 26 26 24 23 23 24 25 28 34 46 54 27 17 24
26 18 22 21 16 15 13 11 11 13 13 15 17 17 16 19 20 19 18 22 27 30 31 29 31 34 37 30 26 26 28 27 23 23 23 24 25 28 35 43 57 28 18 33
38 34 29 23 20 16 16 14 15 13 14 14 16 15 13 14 15 16 18 19 21 22 24 25 29 37 44 34 29 26 29 28 24 24 25 26 27 30 37 44 53 28 18 39
49 43 36 26 24 19 13 14 19 16 16 19 15 12 12 13 15 17 18 20 22 32 43 49 50 48 48 49 30 29 29 30 26 24 26 28 28 30 35 46 47 23 21 47
45 45 51 39 34 30 27 18 20 23 20 24 18 14 11 12 15 19 23 27 39 60 66 65 65 42 28 52 24 25 29 31 28 25 26 28 30 31 35 45 37 18 30 53
48 45 41 43 38 33 31 26 20 29 27 25 16 15 13 13 14 16 30 56 69 72 75 74 77 43 41 33 24 25 30 32 30 28 28 28 30 37 41 43 28 16 38 55
55 57 51 76 69 32 29 26 21 30 26 19 12 12 12 14 15 26 44 66 73 77 65 46 37 36 41 44 34 30 30 32 31 31 30 29 34 40 49 40 22 16 38 58
88 68 70 63 58 52 25 25 21 22 17 16 12 12 16 16 20 40 64 69 78 82 64 42 32 27 32 31 42 40 31 31 33 32 32 34 37 42 53 30 18 16 22 32
96 95 70 66 74 58 30 23 21 21 28 23 13 13 14 18 25 40 53 70 86 54 52 40 37 36 34 33 30 46 42 33 34 35 36 39 45 56 44 24 16 18 20 21
83 97 69 92 78 40 26 23 17 21 21 22 18 13 14 16 23 30 48 72 91 96 52 37 35 29 27 27 26 42 48 42 38 40 39 45 52 60 29 20 17 19 23 25
88 96 89 82 86 61 61 21 18 19 22 16 14 15 28 19 35 40 66 81 98 78 52 38 32 30 29 31 29 39 50 50 43 43 43 51 60 48 24 19 19 21 24 30
86 88 88 49 79 90 74 36 22 21 18 16 22 17 38 39 61 63 95 85 99 65 49 38 35 34 35 41 45 41 57 58 55 52 52 59 60 30 21 21 21 24 25 33
87 93 97 93 96 88 95 67 44 31 32 19 18 16 79 42 37 66 82 89 97 98 57 42 43 46 58 70 87 99 82 75 93 73 64 65 49 22 22 23 24 26 25 32
88 85 79 69 59 79 90 93 62 60 68 37 27 21 38 47 53 67 90 98 99 99 70 53 58 65 76 68 89 100 99 100 97 80 88 69 25 23 24 25 27 29 26 31
94 85 72 58 76 72 88 84 56 59 47 40 35 37 34 45 77 69 82 99 96 100 72 68 62 60 59 62 70 100 100 100 100 100 84 44 26 31 35 28 30 32 32 29
99 93 79 55 60 88 95 95 91 97 88 55 52 41 46 37 46 90 97 94 100 80 70 68 57 73 70 62 80 99 100 100 100 100 64 41 33 29 30 31 32 35 37 37
97 100 73 60 63 90 92 74 96 88 79 88 62 55 53 94 92 62 79 98 84 80 79 77 59 63 68 67 69 69 81 100 100 100 83 71 52 44 31 34 34 35 37 37
84 97 86 60 55 69 87 75 70 78 84 100 92 96 80 56 58 61 75 97 84 82 89 82 72 66 71 70 57 56 56 79 100 100 100 100 72 49 30 31 34 37 37 38
84 95 90 62 50 62 75 78 74 84 93 98 82 99 85 98 96 92 99 96 84 79 76 71 76 76 69 63 54 45 46 47 63 99 100 99 100 70 53 39 38 33 33 35
78 86 78 60 64 46 84 77 44 92 97 98 97 98 98 99 99 99 92 90 85 79 70 45 36 33 32 33 34 40 50 50 50 97 97 99 100 100 100 96 78 72 67 55
91 97 95 75 62 64 78 50 73 95 93 97 98 97 99 93 94 98 96 82 58 38 37 38 36 37 39 48 53 50 49 54 48 62 85 97 97 99 100 100 100 96 85 82
95 96 99 97 97 98 90 88 65 80 84 97 97 98 89 82 50 43 40 39 38 39 36 33 31 27 29 40 56 54 55 54 54 48 59 80 84 93 99 96 100 100 100 99
93 98 94 98 96 94 84 93 94 54 68 95 98 99 80 68 61 64 59 55 46 40 35 30 29 29 33 32 29 42 44 52 52 50 48 46 80 61 53 93 94 60 78 95
95 94 90 100 92 96 92 94 99 57 80 99 98 97 88 80 75 58 44 44 42 38 35 32 29 27 27 25 25 40 52 50 50 47 44 43 43 42 47 44 47 58 88 89
96 94 97 96 96 97 96 95 97 96 73 99 98 98 96 92 72 55 46 45 41 38 37 35 32 29 27 24 23 26 45 52 50 45 42 40 42 41 40 40 42 46 55 69

GFSCGP_700_rhum_120.txt.gz
RH
24 23 22 18 20 20 17 16 15 14 16 16 20 23 21 21 23 27 31 32 34 32 32 32 33 33 30 30 32 33 36 30 20 20 23 26 27 24 26 28 32 36 49 39
29 26 21 20 19 16 13 13 14 12 11 13 15 17 22 18 20 24 26 27 29 32 34 35 35 35 36 36 35 36 35 37 25 22 25 27 26 23 25 26 30 34 46 45
36 35 33 28 28 23 21 18 15 15 13 10 14 18 16 15 18 19 27 26 24 27 30 34 37 37 38 38 38 39 35 36 29 26 26 26 24 24 25 25 29 35 48 45
48 42 44 43 38 32 27 22 18 15 15 13 11 17 16 14 15 16 16 16 19 21 25 30 33 35 34 35 37 38 35 36 29 28 26 26 24 24 24 25 29 36 40 44
42 40 36 36 33 34 38 28 23 17 14 16 15 13 14 14 14 12 12 14 17 18 19 22 25 25 28 32 34 36 32 31 28 27 28 26 25 24 24 27 30 34 36 42
40 41 40 37 44 54 50 43 31 28 22 20 18 15 14 14 12 10 13 16 18 20 25 27 28 33 39 44 46 49 35 38 32 27 29 28 26 25 26 28 30 32 40 42
46 41 41 47 62 55 60 64 35 38 33 25 20 18 18 15 12 10 14 22 28 40 48 56 64 68 63 59 58 54 40 39 31 29 30 30 27 27 28 29 32 32 44 34
50 53 49 54 68 87 90 74 42 47 36 23 19 19 17 17 13 14 28 41 40 66 76 78 86 81 71 86 56 44 39 37 35 27 32 31 30 30 31 32 35 36 47 28
79 53 57 63 64 68 81 50 40 32 29 28 19 17 17 13 12 12 44 65 67 74 83 85 51 29 31 34 34 38 43 39 30 31 33 34 34 38 37 41 43 46 43 22
57 68 64 61 76 68 86 56 46 32 37 36 24 19 14 11 12 17 47 58 73 93 95 59 42 34 29 26 30 30 37 43 36 32 34 37 38 40 41 48 51 60 29 18
55 85 65 72 96 96 80 88 54 39 25 30 36 28 12 14 14 24 46 54 35 81 60 51 39 35 27 22 21 26 27 42 44 35 37 40 44 47 50 49 65 45 20 18
67 84 82 68 64 77 77 95 71 29 27 23 23 26 19 24 21 29 42 63 80 89 61 50 37 31 26 24 24 24 23 38 47 44 41 42 53 50 51 59 67 25 20 22
69 71 87 56 53 36 55 63 75 72 48 27 37 26 19 21 36 27 45 66 94 84 58 48 35 28 28 28 29 28 30 35 54 54 50 59 56 46 57 76 42 21 24 24
69 84 90 92 91 69 59 69 82 92 69 32 23 20 14 35 44 95 59 68 91 99 67 42 34 31 28 39 56 55 81 71 68 70 88 99 88 73 78 78 24 22 27 25
75 84 84 75 65 57 74 66 96 75 60 81 37 23 23 46 58 90 56 51 73 82 65 40 35 31 41 42 50 72 100 99 99 100 99 100 100 98 93 48 24 26 29 28
79 91 84 70 62 51 54 81 87 74 58 58 57 46 73 60 78 84 99 76 95 98 84 63 39 43 47 52 53 61 85 100 100 98 99 100 100 99 88 30 31 32 31 30
81 86 86 78 56 61 80 96 94 97 83 96 74 64 73 78 74 88 64 98 99 100 87 73 58 52 48 65 65 62 74 93 95 100 100 98 100 99 51 38 41 40 38 35
69 78 89 84 69 78 94 89 74 81 98 98 97 97 91 85 77 92 77 83 94 89 81 79 70 58 56 55 66 60 56 53 64 96 100 100 100 86 46 40 55 47 40 38
66 77 90 73 56 55 97 87 80 88 96 98 78 89 100 98 93 91 99 100 77 89 98 95 80 72 69 66 66 65 52 46 44 44 91 100 100 72 52 49 52 49 45 43
84 77 95 85 81 58 100 82 47 73 94 83 64 69 64 99 98 100 100 100 98 92 81 76 72 69 66 52 40 40 37 35 36 37 45 98 100 100 99 58 54 61 58 46
79 83 88 86 77 72 96 56 49 79 95 98 97 95 98 98 99 99 98 93 88 71 67 71 55 37 29 29 31 34 34 35 35 38 42 76 100 99 100 99 88 91 60 47
94 96 87 86 73 87 69 64 91 100 63 90 98 98 97 94 98 100 97 97 90 78 61 37 32 32 32 33 40 49 47 49 47 47 44 50 71 100 99 98 99 97 64 54
94 96 96 97 96 97 87 92 93 97 82 95 97 97 96 92 68 62 57 59 48 40 35 31 30 28 26 38 40 36 45 48 54 53 51 49 50 65 99 99 90 100 99 100
87 94 95 81 94 88 80 100 94 96 84 100 97 97 98 96 94 81 53 51 47 40 38 33 28 27 28 26 25 29 45 47 48 53 52 50 47 54 66 97 97 99 99 99
84 81 88 96 82 90 96 93 90 95 100 87 86 98 97 94 92 89 61 44 41 39 36 34 32 30 28 25 24 25 36 52 53 52 49 47 46 46 53 65 92 90 90 99
88 94 91 94 100 94 92 96 96 96 99 93 95 85 96 97 95 69 58 50 42 39 36 34 35 33 30 28 26 25 42 56 47 39 40 40 44 48 50 58 74 99 90 56

GFSCGP_700_rhum_123.txt.gz
RH
6 16 22 22 26 27 27 26 24 19 18 17 15 14 16 18 22 26 33 33 34 32 33 33 34 34 31 26 23 23 28 30 30 32 31 27 24 25 24 25 26 27 30 36
18 31 30 31 28 31 30 30 26 24 21 19 15 15 14 12 22 26 23 22 25 28 31 33 34 34 34 32 27 26 26 28 29 32 32 31 27 27 28 27 25 27 29 33
40 40 45 42 38 38 34 40 38 36 32 26 21 17 14 13 11 20 26 18 18 25 28 30 33 36 34 33 32 30 30 32 33 34 34 34 30 26 27 26 25 26 28 31
43 43 43 38 38 36 38 38 46 44 47 34 28 20 16 13 11 11 20 18 18 23 27 28 31 35 36 35 34 34 34 35 36 37 37 37 30 27 27 24 24 26 26 30
44 51 49 42 41 45 54 60 56 51 47 49 34 25 16 15 12 12 12 14 15 16 25 25 26 31 32 36 37 38 38 39 39 39 39 38 31 29 28 25 24 26 28 31
46 45 38 45 44 55 57 52 51 47 52 51 36 33 19 17 14 12 9 14 14 14 15 16 24 20 29 30 32 34 35 36 37 37 38 34 30 29 29 25 25 27 28 30
45 46 37 47 45 49 72 79 86 69 56 48 34 32 26 18 16 13 13 15 31 18 18 18 19 24 25 28 32 35 37 37 36 36 39 34 31 30 30 26 26 27 28 30
79 76 56 42 53 65 66 72 79 94 63 47 28 31 24 18 18 15 14 29 39 24 28 32 28 26 26 35 35 48 53 44 41 51 44 35 33 31 32 28 26 28 30 32
65 65 54 38 50 87 92 96 96 97 86 60 38 34 29 14 16 18 18 42 45 64 47 36 38 34 31 36 41 55 54 51 58 54 40 34 31 33 35 31 29 32 32 33
62 62 48 42 40 67 93 99 92 83 66 56 43 38 30 23 28 14 17 44 48 37 58 48 48 50 55 65 49 44 41 42 44 45 39 34 36 37 38 43 37 35 37 38
54 66 49 50 42 54 66 84 95 97 63 50 50 35 26 25 31 33 23 43 47 43 57 66 52 45 35 30 27 26 29 31 34 44 43 38 38 39 44 45 45 44 41 46
61 60 68 54 35 60 72 82 92 97 93 80 37 32 20 28 27 30 51 52 52 60 56 61 58 43 35 29 24 21 20 22 27 37 47 41 37 45 87 69 49 48 56 63
59 63 86 62 43 54 72 70 72 82 77 66 60 36 28 39 40 68 63 60 62 68 63 68 57 36 32 29 26 24 22 24 26 32 50 48 76 100 100 94 55 55 63 77
60 71 90 92 77 73 90 69 67 78 97 60 43 49 64 55 65 61 83 93 69 76 69 92 48 33 31 30 33 47 46 40 39 43 60 87 94 100 96 90 100 70 75 75
55 69 62 73 75 72 78 62 81 97 81 76 63 59 83 78 70 65 84 95 99 95 84 79 68 39 38 46 42 42 67 95 97 98 99 100 99 100 99 100 100 97 85 41
35 70 74 67 60 61 73 96 96 99 95 86 89 61 90 91 77 74 80 88 99 99 77 60 46 56 57 55 56 50 53 79 100 99 98 99 100 99 99 100 100 99 85 29
58 59 68 87 57 70 94 96 98 97 98 96 95 99 97 90 84 69 82 87 93 93 99 73 53 54 52 55 62 62 56 55 76 85 98 98 98 100 98 100 100 100 63 39
73 62 66 84 75 85 99 65 76 98 97 92 97 99 99 99 90 76 90 98 97 92 98 84 67 60 58 58 62 61 61 52 46 44 76 98 100 99 99 100 98 100 83 58
66 69 92 85 92 67 90 65 72 69 96 95 97 98 98 99 99 94 99 94 63 86 68 66 73 75 66 60 60 58 49 44 37 36 35 40 84 100 100 99 98 84 94 86
67 86 74 82 95 95 97 60 49 55 93 81 97 98 97 99 96 98 98 100 99 98 98 87 78 71 64 58 43 34 31 31 31 30 32 33 40 96 100 100 99 70 100 99
69 60 85 76 84 98 88 62 56 73 98 97 98 98 98 98 97 95 93 96 91 81 79 67 58 41 35 29 26 29 32 29 30 28 35 40 43 64 99 100 100 92 62 80
86 88 88 86 92 92 80 60 73 100 99 100 96 98 97 96 97 98 91 96 89 75 68 45 33 31 28 25 30 33 38 38 35 39 40 47 45 48 56 90 98 100 79 74
83 86 93 95 96 94 99 92 99 100 98 95 95 96 94 94 92 96 90 68 55 48 38 32 30 28 25 27 25 23 31 38 39 42 46 44 48 47 49 65 82 100 98 99
84 84 75 83 97 83 81 94 96 97 98 100 100 97 98 97 97 95 85 57 51 45 40 36 32 29 27 25 22 21 24 43 48 46 47 48 46 44 44 56 82 100 99 99
71 78 84 88 89 82 78 79 88 96 97 100 100 95 95 98 96 95 86 59 51 44 41 38 35 32 30 28 25 23 27 50 49 45 42 42 43 45 48 50 78 93 99 99
75 87 82 79 77 79 73 65 76 92 96 97 98 100 99 100 98 96 81 60 50 49 45 40 38 35 31 28 26 26 28 40 37 30 37 44 48 49 54 53 55 80 89 99

GFSCGP_700_rhum_129.txt.gz
RH
5 6 15 20 25 34 41 40 36 22 20 24 33 21 10 9 13 8 7 8 10 10 5 7 19 30 32 31 31 28 26 25 26 29 32 32 31 32 37 33 37 32 27 28
8 17 22 23 30 33 36 32 20 8 22 32 28 12 6 8 9 11 10 5 9 13 9 12 17 28 29 36 32 32 27 23 22 22 24 25 26 30 35 38 42 34 31 28
10 16 22 28 26 31 36 33 30 46 20 23 43 35 21 12 16 13 14 16 8 10 13 14 15 25 30 32 34 33 33 29 23 22 24 24 28 32 42 47 45 37 30 29
20 25 28 25 25 36 40 30 45 44 45 57 39 69 34 22 27 24 20 24 18 6 13 14 14 20 29 29 28 32 34 32 30 29 24 23 25 30 35 39 35 38 36 30
24 22 15 19 29 30 29 32 38 44 44 59 26 74 45 46 48 39 38 36 39 16 10 12 13 12 27 33 31 25 35 33 32 29 27 24 23 24 27 37 42 39 38 32
19 15 18 22 31 24 24 36 33 37 57 85 50 61 55 46 43 43 37 36 29 18 13 13 13 14 36 26 46 48 47 35 34 31 28 26 28 29 35 45 41 42 40 39
29 31 22 19 23 24 29 46 77 73 61 55 47 72 46 45 50 36 34 30 24 21 19 16 15 17 30 29 51 36 33 39 34 34 34 32 32 34 40 43 46 46 41 38
43 44 31 26 30 44 49 56 92 95 71 66 66 71 46 47 56 66 55 46 38 33 19 19 19 19 30 26 32 37 36 34 40 38 37 37 37 48 59 54 45 41 37 35
53 58 46 38 34 44 58 64 72 96 88 92 53 52 45 51 48 66 57 50 43 34 21 19 24 22 23 30 28 50 44 31 42 65 59 52 48 53 51 47 46 43 37 37
57 58 52 32 27 46 56 69 81 94 92 80 65 53 51 70 71 57 95 87 88 60 45 84 59 40 28 26 31 54 44 41 42 61 66 58 46 46 45 46 44 43 46 41
52 58 46 26 34 59 58 58 79 93 93 94 84 53 53 78 74 55 83 99 100 75 75 99 85 58 41 30 29 34 46 46 48 53 52 52 47 44 46 46 52 52 51 40
55 53 60 40 47 51 57 60 84 96 84 84 94 77 71 72 77 56 60 97 100 99 61 99 100 86 76 71 66 56 54 53 54 58 50 45 51 62 60 60 59 48 45 43
52 55 57 45 37 29 49 62 93 97 97 96 97 69 81 87 77 51 76 88 94 97 99 99 97 89 89 88 76 62 56 54 56 53 51 50 44 39 43 50 59 54 55 49
61 52 47 58 40 35 55 72 92 98 96 96 89 92 99 92 90 82 89 92 99 97 99 99 100 86 79 81 51 44 41 35 27 26 23 22 25 30 39 97 96 90 77 74
34 36 36 30 47 59 66 91 89 99 97 96 91 97 100 100 99 100 100 98 98 98 99 100 99 95 89 62 42 32 31 31 33 33 31 27 22 23 32 89 96 98 88 77
16 23 58 55 46 59 80 95 70 85 99 82 80 85 99 100 98 100 100 95 70 98 98 98 99 85 68 57 48 42 39 37 39 38 40 48 57 57 89 59 99 88 100 93
33 56 67 76 61 63 97 78 57 73 99 95 94 97 97 99 98 99 100 100 82 85 98 99 97 99 90 66 54 48 42 44 45 46 66 91 82 98 97 100 82 100 97 98
70 83 92 88 77 84 87 80 62 77 99 99 98 96 97 96 99 98 100 98 99 89 92 98 98 92 88 68 63 58 53 50 46 42 36 45 83 83 94 93 82 98 98 95
70 86 88 94 87 66 97 90 66 80 90 100 91 91 95 96 97 96 97 98 98 99 100 98 96 94 88 60 53 50 48 46 44 40 37 34 36 66 84 86 84 82 88 99
69 78 100 95 94 97 76 63 55 87 94 93 84 97 91 94 90 92 85 86 96 96 92 78 75 64 54 55 43 30 25 24 26 26 29 32 32 32 33 55 75 85 87 95
61 89 72 86 99 86 78 53 57 92 63 88 97 100 94 92 92 93 96 93 94 93 76 68 64 56 39 32 27 25 24 25 28 27 26 28 30 33 30 29 31 55 97 100
67 69 68 82 90 74 62 54 55 72 84 88 95 90 90 100 98 98 97 95 97 95 78 51 52 59 30 28 27 24 21 22 30 34 33 30 30 31 36 36 35 36 69 97
83 72 78 71 67 62 74 62 59 64 79 92 95 90 90 89 97 95 96 92 85 85 58 47 39 35 30 27 25 22 20 23 32 36 35 36 37 35 33 37 39 37 36 58
89 81 75 75 67 78 77 72 63 57 76 92 95 90 89 93 96 95 96 81 90 80 52 46 42 37 34 30 29 26 23 36 43 38 36 36 37 38 39 37 33 35 38 43
65 82 72 66 68 74 71 77 68 67 49 77 89 92 95 97 96 97 97 94 80 64 55 49 43 39 36 32 29 28 27 26 25 23 23 23 26 31 30 31 35 38 37 46
39 45 53 50 75 67 62 63 58 56 49 41 81 91 92 96 93 93 96 95 94 89 61 52 46 41 37 34 30 26 25 26 24 22 22 21 20 22 26 35 39 37 40 48

GFSCGP_700_rhum_132.txt.gz
RH
5 7 7 12 19 27 28 19 11 9 12 20 20 9 4 7 10 18 21 20 14 11 2 2 2 2 10 15 22 25 30 30 31 48 58 56 49 42 36 34 36 38 35 28
8 9 14 19 26 21 14 13 12 13 16 23 14 7 6 11 19 24 21 21 23 19 13 5 2 3 5 13 19 26 29 31 30 31 53 54 49 50 41 34 36 38 40 37
10 15 21 25 20 16 14 18 22 21 10 20 37 14 20 12 19 25 20 27 31 29 20 16 7 2 4 12 16 25 31 33 30 29 32 34 39 49 45 32 33 36 41 39
13 23 22 15 17 18 14 20 19 14 28 43 46 62 29 17 30 43 42 37 30 33 31 24 18 4 2 11 15 20 28 32 33 32 30 30 26 27 26 24 27 35 39 43
22 16 14 18 20 23 24 16 14 19 38 62 42 64 33 27 35 43 61 79 56 39 35 28 13 11 3 11 14 17 28 28 32 33 34 30 29 27 24 23 27 33 38 45
17 17 18 25 25 22 21 22 17 30 48 68 43 54 44 39 44 54 73 89 60 38 30 32 21 16 9 11 13 13 23 24 26 33 34 34 28 31 30 25 26 30 28 43
23 25 26 30 22 40 37 39 67 61 53 51 40 64 41 36 47 70 77 89 74 60 55 32 23 22 14 13 14 15 25 30 27 32 34 34 33 36 28 26 26 25 29 47
34 43 29 26 27 42 53 66 73 99 71 58 54 76 39 45 61 68 68 78 100 96 97 53 30 18 12 13 13 18 30 38 41 39 36 34 35 38 32 31 31 30 44 55
45 41 32 26 28 51 44 63 70 78 80 93 54 46 45 57 64 71 68 78 93 100 100 97 24 19 14 11 12 28 34 41 41 41 41 40 40 36 35 34 36 49 70 50
51 37 39 25 43 59 63 56 68 87 97 79 58 52 70 68 74 76 98 96 96 98 86 100 77 40 22 18 25 25 38 48 60 61 60 54 47 45 53 61 60 68 54 45
44 40 39 30 44 56 58 59 63 84 90 89 85 57 72 69 86 98 99 98 98 98 81 96 100 100 98 48 26 34 47 68 93 67 81 74 67 68 82 90 89 71 55 50
42 42 50 29 51 42 51 54 62 93 85 94 96 72 76 78 91 98 98 97 98 98 99 76 100 99 99 89 61 50 71 94 96 86 96 96 96 75 80 94 85 87 66 58
49 52 50 24 48 40 37 50 68 87 98 92 96 67 78 84 89 100 98 96 98 98 98 92 99 100 100 91 74 63 74 77 97 100 93 99 99 86 85 84 91 84 71 61
47 46 39 31 18 31 45 59 69 92 99 96 91 93 83 90 98 99 98 98 99 98 98 97 98 99 100 98 99 83 80 86 92 86 98 98 91 85 97 97 89 76 64 59
44 30 20 21 26 46 62 70 74 70 86 98 90 93 99 96 98 98 98 100 99 97 98 97 98 99 100 99 97 89 91 90 64 46 37 34 38 42 36 39 45 57 82 68
18 15 31 35 34 62 73 85 71 68 89 85 88 95 100 96 97 98 98 100 98 100 98 98 97 98 98 87 90 89 81 52 41 37 34 34 36 28 26 30 37 36 84 82
17 41 63 57 64 75 88 86 66 56 91 97 91 96 95 92 96 94 96 96 97 98 95 97 98 96 97 83 65 59 52 48 45 47 59 62 64 96 94 100 71 68 78 94
53 78 84 80 73 86 88 81 68 54 75 99 95 92 97 92 98 97 100 96 93 94 99 97 98 98 94 93 65 54 52 50 46 43 39 43 74 89 100 99 100 93 96 99
74 86 91 85 96 78 91 93 65 49 67 88 89 87 90 91 87 90 84 84 85 84 94 91 76 95 94 94 54 39 39 44 44 43 41 36 35 53 87 90 91 96 88 88
71 89 96 100 95 98 86 77 55 58 85 96 85 84 81 79 79 82 80 94 89 85 90 88 71 52 67 44 37 30 27 25 24 25 27 30 32 31 34 59 88 89 82 84
74 88 98 100 94 75 84 70 54 82 70 85 90 82 85 91 99 97 100 100 94 97 87 94 69 74 38 32 28 29 24 22 23 23 23 23 24 27 29 31 32 38 51 65
64 67 79 73 92 79 62 61 62 62 65 76 92 86 85 87 98 98 98 97 88 86 73 74 48 42 34 28 26 24 22 22 23 28 29 29 30 26 26 29 32 31 31 37
68 61 63 63 60 60 54 66 73 68 56 62 85 95 91 87 91 96 99 95 87 81 69 56 47 43 38 33 29 26 26 32 41 39 39 36 33 32 29 27 27 30 33 34
72 66 59 62 53 56 54 72 76 75 62 54 49 88 96 91 95 98 98 97 95 82 76 60 48 44 39 34 31 30 29 28 30 30 28 27 26 29 32 36 38 36 34 32
65 54 57 65 59 53 54 71 71 70 58 52 46 59 91 97 96 97 96 97 98 93 78 61 51 45 41 36 34 30 31 29 26 24 24 22 20 20 23 25 28 30 34 40
43 43 52 55 53 60 84 82 81 60 63 63 49 48 67 90 96 96 96 98 97 97 90 72 56 50 45 39 36 32 31 31 26 23 22 21 21 22 24 26 32 37 41 46

GFSCGP_700_rhum_135.txt.gz
RH
5 5 5 6 6 9 10 9 7 4 5 6 3 2 3 7 16 18 22 22 17 21 12 8 8 7 4 2 3 10 22 34 48 49 56 60 56 51 49 40 30 26 29 27
6 6 8 10 12 12 7 8 7 13 9 8 5 2 7 9 12 27 33 32 35 34 25 23 23 15 6 6 4 3 14 20 42 45 46 42 36 48 56 44 37 37 37 36
9 10 14 16 14 8 7 6 9 9 12 12 19 11 19 12 22 24 27 36 42 47 50 35 32 30 25 10 8 3 9 21 28 43 36 32 32 48 58 51 43 39 36 36
13 18 22 20 13 10 6 8 6 10 24 41 33 34 21 15 29 28 35 44 49 48 56 40 37 31 26 26 17 6 9 20 23 38 43 42 32 48 52 46 46 36 35 37
19 24 19 16 14 10 10 7 10 16 36 60 46 58 22 29 43 42 48 49 63 78 72 66 59 61 34 29 19 12 7 17 24 31 31 32 31 34 46 55 43 36 34 41
16 15 18 16 15 9 13 16 14 32 56 57 36 55 35 39 69 55 54 56 89 99 94 94 92 64 41 26 20 14 9 15 22 31 33 32 32 30 42 37 35 34 26 42
20 22 24 25 13 13 29 27 35 34 38 24 34 50 34 46 52 63 60 81 98 98 98 99 89 49 34 25 14 8 15 15 21 28 29 33 32 32 30 30 27 25 24 30
22 36 33 26 15 18 49 52 52 51 45 40 53 57 41 46 54 58 74 92 87 88 97 98 88 45 47 27 14 14 14 15 18 27 29 28 31 32 33 33 34 30 25 25
23 31 32 17 19 39 51 66 71 77 79 79 57 46 43 48 58 58 83 81 91 94 98 99 98 45 34 20 18 14 14 18 21 25 26 26 30 33 33 33 33 32 32 30
27 23 30 24 45 57 57 56 72 81 79 70 46 50 74 68 61 80 95 83 95 97 94 98 99 94 32 24 15 15 22 25 29 34 32 37 37 34 33 34 35 31 30 32
27 22 38 25 48 60 62 58 61 85 91 75 66 44 86 65 80 99 99 97 96 97 95 98 98 100 98 54 22 17 23 34 39 38 36 37 41 54 39 38 39 36 35 41
33 27 31 24 47 43 53 54 63 87 86 91 83 63 80 64 89 98 97 98 97 97 97 97 99 100 99 99 95 39 26 46 55 57 49 41 57 83 83 72 68 74 69 55
32 37 30 45 51 42 38 41 63 76 97 93 87 55 62 67 83 96 97 98 97 97 97 97 97 96 100 99 99 81 54 51 58 58 53 65 62 93 95 95 95 71 69 63
37 32 18 22 16 22 26 43 70 83 99 87 80 91 76 79 85 80 89 97 97 97 97 97 96 96 98 100 100 83 70 65 55 72 67 78 78 93 98 98 97 98 87 79
39 24 13 14 16 28 36 59 73 81 65 88 64 78 83 93 92 90 95 97 93 96 97 96 97 95 97 99 100 100 97 82 99 98 95 100 94 92 92 86 99 97 90 93
31 12 12 19 30 54 58 65 80 69 56 55 76 76 90 92 88 88 93 90 86 90 96 95 97 98 95 97 99 99 99 98 99 100 91 92 89 93 84 88 82 72 64 78
16 12 37 52 71 76 73 57 78 67 52 44 76 83 86 83 92 88 95 87 78 79 88 95 97 98 98 96 87 70 73 78 95 100 100 100 89 84 91 95 99 91 85 87
19 46 68 72 77 86 75 84 80 72 50 39 72 84 86 87 93 94 96 89 78 77 81 91 84 97 97 97 93 41 45 48 49 46 50 70 99 99 98 100 96 79 81 98
40 72 84 91 93 81 83 94 70 57 49 48 67 82 69 79 76 82 89 93 89 89 90 85 89 65 95 83 89 34 31 31 34 39 41 40 39 55 94 97 99 97 99 99
78 79 92 100 91 83 75 78 79 68 56 59 76 68 73 77 73 77 83 90 93 88 87 77 78 85 62 35 31 30 26 24 27 31 31 30 34 35 34 58 89 84 98 91
86 94 98 100 95 74 85 91 66 77 63 56 58 70 78 83 92 87 93 95 90 92 82 64 58 44 64 34 29 25 22 20 22 30 29 28 25 26 29 31 33 40 74 88
72 72 94 99 94 81 84 63 64 73 69 62 54 64 79 87 91 93 91 91 87 85 82 68 54 45 41 35 30 28 23 21 31 35 34 34 32 27 24 27 30 33 32 30
72 62 60 57 58 68 65 58 65 76 74 70 60 46 55 80 88 92 93 92 92 84 82 74 60 49 42 37 33 30 29 28 35 35 34 38 39 38 34 31 27 28 28 28
70 65 60 55 52 55 63 55 55 70 75 69 55 48 37 45 80 93 96 93 93 93 95 86 66 54 48 44 38 32 29 29 29 30 27 25 26 29 31 32 35 35 29 24
70 61 56 52 49 52 58 53 75 81 75 58 59 56 48 43 56 83 91 94 92 95 95 95 77 61 51 45 43 38 34 29 26 28 27 25 23 22 23 22 26 27 28 31
37 34 45 52 41 41 49 62 90 95 82 71 72 70 62 52 55 76 86 91 94 94 95 96 96 83 61 52 44 42 39 34 33 29 31 27 24 24 25 25 27 32 36 40

GFSCGP_700_rhum_138.txt.gz
RH
6 13 15 25 5 6 8 8 14 12 8 4 3 9 18 12 24 28 35 40 44 60 67 76 81 44 20 8 4 2 4 3 15 30 49 59 44 34 44 58 64 67 42 32
8 16 13 6 7 9 10 15 13 10 10 8 7 7 20 25 29 35 38 51 67 74 76 88 55 28 35 27 17 11 5 6 5 19 35 56 58 52 54 62 62 62 40 28
18 30 8 9 11 11 19 13 20 17 17 17 23 13 21 25 27 38 62 74 77 90 89 57 50 55 59 54 49 31 23 22 9 8 29 40 49 62 60 61 56 46 46 31
31 9 13 18 22 9 18 8 4 13 30 18 30 13 18 23 34 56 68 74 85 61 58 63 59 61 58 64 60 39 35 23 14 9 27 33 39 54 60 56 49 42 44 31
31 14 17 29 21 9 25 5 5 24 37 38 33 29 14 24 49 61 66 78 78 71 72 66 71 72 66 60 51 56 50 34 25 14 11 40 30 50 63 53 46 40 45 39
22 17 23 32 12 10 7 8 40 44 46 29 26 28 17 40 63 68 58 84 60 67 70 60 87 83 74 70 58 47 52 36 30 15 12 22 27 33 50 49 36 39 49 44
19 32 18 16 21 17 30 34 15 17 21 16 29 32 27 57 72 82 55 62 73 77 70 70 83 81 95 99 96 57 37 34 32 11 16 20 24 34 37 34 37 47 48 45
26 33 39 20 16 25 49 47 32 38 18 19 28 34 27 55 75 68 63 80 88 81 75 86 92 95 100 99 87 54 23 27 24 11 17 26 30 40 47 52 45 43 50 52
25 36 37 23 12 18 59 52 59 69 54 48 30 29 27 64 78 72 75 88 89 82 84 91 90 97 100 88 98 51 21 15 12 15 18 27 29 33 40 38 33 33 38 44
23 46 48 23 16 35 65 58 70 62 57 40 22 26 38 73 88 62 76 79 84 88 88 94 90 96 100 56 38 32 13 15 16 16 20 25 26 30 30 33 32 31 33 32
15 30 52 29 36 50 66 65 66 71 62 46 39 29 73 93 70 58 80 74 82 80 90 96 92 95 98 88 71 33 23 20 25 29 30 39 41 33 27 28 34 33 32 33
15 27 41 36 35 53 59 60 67 63 61 58 57 50 72 88 54 67 76 81 80 79 86 97 95 97 95 100 99 75 30 34 37 32 31 28 36 47 48 30 30 33 33 32
16 34 31 36 46 54 54 57 55 73 83 67 59 37 45 78 65 63 74 77 77 72 79 92 96 96 92 100 99 99 83 48 41 43 50 48 42 44 42 39 38 36 46 70
19 15 21 29 43 46 53 50 50 72 86 54 47 50 62 89 68 65 77 75 79 71 72 84 96 97 95 96 100 100 100 98 90 82 74 76 63 49 57 65 81 64 78 74
30 19 13 27 28 20 33 43 54 71 65 92 56 67 78 71 77 77 84 75 72 66 64 82 95 96 97 94 99 100 100 99 86 79 85 86 82 76 65 82 94 98 99 91
35 34 14 14 23 29 29 45 67 64 91 80 72 70 77 72 70 72 74 77 71 66 69 75 90 98 98 97 97 97 99 100 99 96 82 82 88 77 93 90 86 98 98 100
36 29 34 32 51 62 72 37 57 62 68 62 55 58 60 70 62 68 70 80 75 71 74 72 86 86 96 96 94 85 91 98 94 98 99 97 84 98 76 94 97 96 99 99
26 27 55 55 78 70 72 58 86 87 63 54 44 50 59 72 70 75 73 80 78 75 75 72 78 72 93 58 96 58 48 47 52 62 97 99 100 94 90 99 100 93 94 97
20 55 77 70 53 72 80 73 90 77 84 57 56 59 55 49 70 100 77 75 82 78 80 70 63 51 82 64 34 78 59 31 28 37 42 43 69 96 100 100 94 83 97 99
19 62 81 80 61 51 81 67 72 73 84 58 47 48 48 53 69 80 76 73 78 81 82 75 58 49 46 48 30 28 30 30 27 31 33 35 40 40 64 98 99 99 100 100
72 90 85 71 65 69 74 74 78 78 85 55 57 52 48 49 69 78 80 82 82 80 78 79 65 54 46 41 34 33 28 31 36 34 34 36 36 37 39 39 55 77 90 92
90 84 91 76 69 64 77 85 74 78 60 63 63 59 52 44 41 70 80 83 82 82 80 82 73 59 49 45 37 36 40 32 31 36 38 40 38 36 35 36 39 38 37 49
87 80 77 79 73 75 77 70 60 54 60 66 70 63 53 46 35 35 68 80 84 84 82 86 83 68 53 47 44 39 40 38 34 30 30 30 32 36 39 41 38 35 36 37
71 63 68 56 57 67 66 61 59 54 62 64 62 55 51 46 42 36 42 76 82 86 86 88 94 87 63 51 45 41 37 34 34 29 29 26 23 24 26 30 36 38 35 32
67 60 58 75 65 54 50 42 46 54 67 76 60 58 55 50 46 44 42 70 77 82 87 90 92 92 85 60 50 43 44 40 38 31 29 26 23 24 23 22 22 26 30 35
44 48 64 88 63 40 48 35 46 59 71 88 79 73 66 60 54 56 52 64 77 81 86 89 93 94 94 86 61 51 43 40 38 35 34 32 30 26 26 28 26 31 34 35

GFSCGP_700_rhum_141.txt.gz
RH
26 21 18 13 20 22 16 11 9 10 12 15 12 13 13 16 18 24 30 42 56 62 75 93 81 59 52 44 36 14 10 4 3 4 3 11 34 64 55 27 27 27 32 37
25 16 17 21 16 16 15 13 11 13 14 14 13 14 15 20 23 29 46 54 58 68 92 84 47 47 42 33 28 30 25 20 13 45 19 5 14 46 72 47 27 27 31 45
18 23 21 13 19 18 13 16 16 15 14 14 18 13 16 20 23 39 50 56 70 90 72 48 50 49 43 34 48 42 37 33 35 15 84 32 7 23 81 74 56 30 31 56
15 24 22 16 21 16 12 18 11 16 17 11 16 11 10 16 25 41 53 77 76 50 46 58 56 49 43 55 58 59 52 46 47 44 41 56 27 12 57 94 72 41 32 54
22 33 27 24 21 17 16 16 9 22 24 22 16 20 11 15 34 50 79 50 41 44 55 57 64 57 63 83 73 68 62 39 35 53 48 79 36 16 11 74 95 74 44 59
21 33 30 24 26 11 12 8 24 28 29 24 17 22 10 26 48 64 55 31 48 55 56 62 72 66 61 90 93 87 49 39 39 41 52 80 30 27 14 25 71 98 67 60
32 34 32 28 25 26 18 26 18 26 27 18 22 20 16 34 56 72 62 36 50 64 53 56 67 69 62 83 100 67 48 37 44 53 66 73 39 39 86 16 52 90 94 62
27 28 35 30 24 22 29 28 21 31 16 14 15 16 26 42 56 72 71 39 52 61 52 58 67 74 78 88 100 97 96 81 40 66 78 69 38 25 98 53 48 62 91 59
25 24 34 37 32 24 42 34 43 48 25 35 19 22 21 46 61 73 36 41 43 58 61 58 66 81 81 92 100 99 99 82 51 64 71 63 46 37 93 45 36 67 71 71
28 37 41 41 36 32 42 46 52 51 42 27 12 15 22 58 72 68 41 44 46 55 64 54 59 83 85 99 100 100 100 80 50 50 60 69 30 69 93 35 46 60 58 45
40 38 38 43 38 36 50 42 42 46 36 34 26 22 54 62 80 95 54 52 52 56 62 56 58 89 90 100 100 100 80 72 53 52 46 35 46 97 88 95 94 57 97 92
42 29 41 40 39 37 41 53 48 49 41 44 41 36 48 66 91 71 47 57 55 58 58 58 63 92 92 96 100 99 89 42 35 59 59 47 56 60 65 70 80 80 91 86
38 34 33 36 43 43 45 43 45 49 62 47 42 32 43 44 58 45 38 55 57 62 57 58 59 87 88 96 98 98 100 54 48 51 57 64 68 67 69 67 68 76 56 50
38 42 33 29 34 40 45 37 40 51 65 44 38 35 34 60 47 47 40 54 60 61 64 63 65 75 92 96 95 100 98 99 67 58 55 52 47 48 56 53 57 55 60 66
42 38 39 32 26 35 40 40 38 42 60 60 52 50 47 62 54 53 51 51 62 60 64 63 66 69 89 95 98 97 97 100 98 93 82 61 63 52 51 56 60 58 71 83
38 40 41 35 25 21 19 28 38 44 47 47 52 51 63 60 59 58 43 57 64 62 67 66 67 65 76 84 96 96 98 99 98 95 86 83 82 81 71 63 68 67 62 74
35 41 32 26 21 19 24 30 31 43 60 75 80 75 47 37 46 43 34 59 69 70 69 68 67 59 48 64 58 96 86 88 100 99 98 98 81 71 83 83 87 99 90 84
55 42 34 28 46 53 57 67 52 51 43 76 87 77 46 34 38 39 41 66 72 70 69 72 71 57 45 54 39 53 93 47 49 92 91 97 93 100 96 83 73 99 92 96
48 37 46 43 48 56 72 49 57 62 70 77 74 50 38 35 38 89 59 72 68 70 71 73 73 66 52 43 40 38 53 90 43 29 37 47 82 99 100 82 97 99 100 98
46 41 53 49 45 46 61 79 78 74 70 84 59 44 40 39 50 90 50 61 65 71 73 73 73 69 60 47 41 40 36 33 67 40 35 36 38 48 55 95 100 100 98 96
57 60 64 54 51 58 83 64 53 72 86 88 56 45 46 47 44 41 37 37 59 69 73 74 78 73 66 51 43 38 40 33 30 34 35 41 40 35 39 45 57 82 99 99
48 57 66 55 53 54 84 64 65 91 88 65 47 44 52 54 51 46 38 28 36 61 71 75 79 78 72 60 45 40 38 33 29 25 28 31 40 44 37 34 38 44 61 67
61 58 60 60 61 74 74 97 64 66 59 49 47 48 53 54 51 47 42 32 29 51 68 76 79 83 83 73 54 43 41 40 32 29 25 23 24 30 39 43 38 39 44 43
87 76 80 78 90 99 71 59 62 58 51 46 47 53 54 51 51 50 46 42 38 49 67 73 78 85 88 90 71 50 41 42 43 36 32 27 24 26 26 30 37 45 40 36
92 81 88 79 93 100 99 85 56 42 44 45 52 66 63 58 58 58 56 55 49 49 68 74 79 82 88 89 94 63 50 41 42 43 42 37 36 36 38 37 36 32 36 42
93 65 90 81 93 94 98 100 51 31 32 44 60 76 77 75 71 65 60 63 65 54 68 78 84 84 86 92 95 94 65 54 46 42 42 46 45 42 44 46 42 41 43 56

GFSCGP_700_rhum_144.txt.gz
RH
30 28 24 23 18 16 18 14 13 11 10 12 13 13 12 12 15 20 31 48 52 57 44 18 21 21 19 24 29 30 24 20 24 20 5 3 3 4 6 36 98 56 25 27
27 29 27 20 20 18 15 11 10 11 12 13 13 12 13 15 20 27 45 51 63 32 32 25 26 26 32 35 34 28 22 19 29 27 23 24 6 4 6 7 55 96 57 25
27 25 21 21 19 18 14 13 13 15 14 13 13 14 14 18 21 36 47 60 46 18 17 21 23 35 43 38 35 30 24 24 38 41 34 26 17 8 5 6 7 66 99 47
25 25 24 19 19 18 17 16 14 14 14 12 15 14 14 18 21 37 49 52 33 17 23 28 36 40 39 41 44 42 29 32 41 53 48 44 35 18 12 14 12 10 60 89
24 20 28 23 21 17 17 21 16 15 16 19 18 16 15 14 22 40 59 64 21 18 25 38 41 40 41 42 45 46 43 47 59 38 40 40 41 39 40 50 30 12 30 84
25 26 29 28 22 21 20 13 13 18 23 26 24 20 16 16 36 55 66 49 29 19 25 31 43 45 41 41 45 56 64 76 46 34 32 38 39 32 65 56 56 16 4 49
27 28 30 28 27 25 20 20 21 25 31 30 20 20 18 31 49 58 63 50 25 19 27 32 41 46 42 38 50 65 83 73 47 40 40 42 44 38 66 74 41 50 21 6
30 26 33 31 28 22 27 21 26 34 28 22 16 15 24 38 58 70 82 50 27 24 29 35 41 46 42 44 51 66 77 93 58 67 31 26 45 55 73 84 46 45 96 6
28 27 26 31 31 24 26 31 30 38 30 21 16 15 27 42 60 73 74 42 29 24 30 34 40 45 45 54 60 78 92 100 94 69 49 54 79 78 92 75 40 59 88 50
31 31 31 34 30 27 30 38 36 30 31 25 16 14 32 53 68 77 49 39 24 24 34 36 38 40 51 63 70 88 98 100 94 69 61 59 68 76 67 73 58 55 71 98
32 35 37 36 37 29 32 43 40 42 41 34 27 22 46 61 78 45 43 37 31 24 37 42 40 43 59 76 80 92 98 100 88 56 70 61 66 67 56 47 34 44 56 98
36 42 40 38 36 30 33 40 38 43 29 32 35 36 47 55 52 50 46 35 33 24 39 44 46 48 57 74 82 97 97 99 99 90 74 72 58 58 39 25 32 59 75 68
42 44 44 38 40 34 39 38 43 42 53 59 52 35 51 66 66 56 41 34 30 25 37 41 48 50 57 66 81 97 96 99 100 100 98 99 81 58 76 86 95 83 82 95
47 38 34 40 35 36 38 35 35 43 50 47 33 29 38 57 56 47 32 29 29 31 34 41 47 51 58 60 71 89 91 97 100 100 98 97 98 98 100 96 99 90 78 63
49 46 36 39 36 40 42 38 30 36 44 56 43 45 48 52 51 54 41 31 30 36 33 41 46 49 55 49 59 68 95 97 100 100 99 98 97 96 80 81 87 95 89 66
53 48 39 42 33 20 20 35 35 35 42 46 46 40 60 69 68 45 33 30 36 33 37 46 50 51 55 46 53 33 78 83 97 100 100 96 95 88 87 85 82 72 81 81
53 44 44 40 33 26 24 21 28 35 38 44 46 45 59 68 50 39 30 32 36 43 44 47 52 55 57 53 40 40 31 86 78 89 89 83 86 76 69 67 70 86 80 90
77 38 39 36 32 42 29 46 34 28 28 35 58 79 58 50 42 34 38 40 36 43 46 53 55 55 60 58 46 38 33 33 85 76 46 56 59 97 90 82 71 64 79 75
61 48 44 44 50 48 64 48 52 43 40 48 73 71 63 46 33 84 55 39 37 36 41 54 56 61 64 64 56 40 34 32 41 93 61 46 42 48 59 94 99 95 85 79
67 52 50 61 60 76 52 57 50 53 60 74 76 70 51 36 34 85 47 43 37 31 34 48 57 61 66 71 60 46 38 33 32 39 84 60 38 37 39 50 93 98 99 81
64 60 69 70 62 50 82 59 44 58 86 73 67 71 51 36 34 35 39 42 40 34 28 41 60 62 71 72 71 54 41 38 34 36 36 34 31 40 37 40 49 62 62 72
71 82 72 66 76 56 88 66 64 69 82 71 78 64 41 35 32 38 46 47 43 36 27 35 59 65 72 75 80 70 48 42 40 38 41 33 26 27 36 43 48 42 39 44
77 79 72 62 62 74 75 77 66 83 91 70 53 44 34 26 35 48 50 50 50 42 35 34 62 69 73 82 81 85 62 44 42 46 46 41 34 30 28 35 44 48 51 48
74 58 80 67 96 90 99 78 59 64 65 55 44 31 23 27 43 55 57 56 57 53 51 42 57 72 80 84 91 88 82 54 46 47 49 52 52 49 46 41 40 49 56 58
72 70 87 84 95 98 88 82 72 55 53 38 28 31 31 38 63 72 66 63 54 54 59 59 55 74 85 85 94 94 91 74 58 52 52 54 53 56 56 49 47 47 46 52
85 79 92 88 86 76 96 98 85 48 20 22 29 39 40 69 73 76 62 57 57 64 73 72 71 83 90 90 95 97 95 95 71 61 56 55 57 58 60 67 69 63 58 51

GFSCGP_700_rhum_147.txt.gz
RH
35 33 33 33 23 20 18 17 15 13 12 14 13 12 11 10 12 13 15 22 33 30 28 23 10 7 4 5 6 6 6 14 19 15 14 14 13 11 8 3 4 5 31 70
32 34 32 27 25 22 19 16 14 12 11 13 12 12 10 11 14 15 20 29 27 30 30 21 18 7 8 9 11 15 18 21 23 23 14 11 11 12 17 9 5 5 11 40
31 34 26 24 25 22 20 17 15 12 12 15 13 12 12 14 16 18 24 37 26 31 36 32 20 10 12 17 21 25 25 30 32 30 25 16 14 20 19 17 8 10 11 10
31 32 28 27 22 20 18 18 14 14 14 14 12 18 15 16 18 25 32 41 34 37 40 32 21 7 14 19 25 27 27 30 35 36 41 41 41 36 34 30 22 10 12 6
31 24 26 26 24 21 18 18 18 15 15 14 12 18 18 16 21 34 41 41 38 42 35 24 19 11 14 20 27 28 27 32 44 43 62 48 36 32 25 22 34 22 12 10
34 30 26 22 22 23 21 18 18 13 13 30 16 22 21 19 22 39 49 38 39 40 29 26 24 11 11 20 26 29 28 47 48 52 67 43 30 26 28 30 21 29 32 23
34 29 27 28 28 27 21 20 21 34 33 41 23 27 25 31 41 41 41 33 43 39 33 28 9 13 17 23 28 29 36 57 58 68 65 36 35 31 29 26 31 24 32 40
34 29 27 28 29 26 24 22 23 55 54 44 27 17 37 36 35 40 38 31 36 37 29 13 16 24 25 27 29 31 54 67 72 83 57 40 46 40 37 35 30 34 34 43
30 30 28 28 29 29 26 24 20 34 32 37 23 42 50 49 52 58 34 34 40 32 20 17 21 26 27 27 33 43 68 77 86 99 94 62 50 66 58 63 98 69 45 68
29 34 31 30 30 29 25 30 33 34 45 38 24 27 37 61 63 62 55 39 39 33 22 20 22 28 32 34 45 58 77 78 90 98 100 97 90 82 63 68 86 96 88 99
30 36 33 29 31 27 24 32 38 37 26 62 55 49 54 54 58 55 42 47 39 29 22 19 21 32 36 43 51 58 71 78 76 99 89 100 87 96 79 75 64 72 79 80
31 38 39 36 34 34 28 24 41 37 37 42 36 62 62 50 52 52 52 47 40 24 22 18 21 33 44 45 49 55 54 86 99 90 98 92 100 100 99 72 63 46 50 47
38 41 41 42 41 39 37 33 32 37 40 51 56 69 69 70 62 51 48 45 39 26 23 19 18 24 40 45 48 48 50 54 94 96 98 98 97 97 91 99 93 62 76 47
39 38 38 43 48 44 38 31 34 39 42 48 46 75 86 75 63 51 51 49 46 28 24 22 18 17 31 47 49 43 46 34 77 91 98 99 99 100 100 99 97 97 96 75
42 44 48 48 59 57 39 36 32 39 44 45 44 53 61 55 46 51 56 55 42 27 22 18 17 18 26 43 48 50 39 38 41 78 81 93 85 94 98 95 89 99 100 98
87 83 76 90 72 53 41 37 38 34 37 41 45 47 44 38 39 57 52 50 32 22 18 18 18 20 26 41 49 50 44 36 34 50 75 60 63 85 93 79 73 84 97 92
74 80 83 89 81 88 51 35 21 36 31 33 44 46 47 44 43 44 46 35 26 20 20 21 22 21 29 42 52 52 51 38 33 35 51 73 53 57 95 86 74 72 91 92
78 86 86 83 44 57 47 37 31 26 25 29 39 44 43 40 43 47 38 30 25 20 23 25 24 20 24 39 52 57 55 44 35 33 35 52 81 48 44 71 100 89 98 99
91 93 92 82 57 46 52 46 36 35 33 36 28 29 32 53 66 47 34 31 28 26 28 28 25 21 23 40 50 58 61 53 38 34 32 32 54 56 42 43 58 98 100 97
95 95 93 61 51 60 62 49 60 48 54 53 47 57 71 75 47 37 33 31 29 25 24 30 28 25 25 42 53 60 61 62 44 35 33 34 35 33 35 42 45 61 87 98
90 87 86 65 68 68 64 61 62 57 61 70 75 83 86 66 44 33 25 25 23 30 36 36 32 25 26 45 59 66 69 72 57 38 38 37 42 40 37 38 56 64 65 51
72 84 73 61 94 86 74 73 70 58 46 67 78 78 72 47 33 24 24 28 35 44 42 44 41 37 29 48 62 70 79 79 73 45 41 41 43 53 56 48 48 64 63 63
75 71 64 68 74 82 82 84 66 61 59 67 75 66 44 34 24 30 43 45 54 51 48 46 47 49 43 51 64 73 86 86 88 56 48 50 47 48 61 55 62 60 65 67
71 73 83 88 95 92 92 91 80 61 51 44 49 44 32 19 27 44 50 61 61 53 46 42 48 59 54 61 73 79 87 93 97 74 56 57 58 50 53 62 62 58 55 64
84 86 92 97 97 98 98 94 74 66 53 48 38 20 17 30 39 56 56 53 47 44 49 57 68 70 60 73 82 85 89 94 96 95 72 66 69 68 67 60 75 92 95 81
91 81 94 96 94 76 82 86 62 50 24 21 17 28 48 57 57 50 47 53 60 66 73 78 79 77 78 85 86 87 89 94 97 96 95 79 76 81 86 80 74 79 89 95